******** Week 357 almanac for PRN-1 ******** ID: 1 Health: 0 Eccentricity: 0.001489639282 Time of Applicability(s): 61440 Orbital Inclination(rad): 0.9584108231 Rate of Right Ascen(r/s): -8.023191341e-09 SQRT(A) (m 1/2): 5153.578613 Right Ascen at Week(rad): -2.7691001 Argument of Perigee(rad): 0.03707207624 Mean Anom(rad): -0.04274248716 Af0(s): 0.0002645396851 Af1(s/s): -3.637979e-12 week: 357 ******** Week 357 almanac for PRN-2 ******** ID: 2 Health: 0 Eccentricity: 0.01695156097 Time of Applicability(s): 61440 Orbital Inclination(rad): 0.9638097164 Rate of Right Ascen(r/s): -7.954617056e-09 SQRT(A) (m 1/2): 5153.553711 Right Ascen at Week(rad): -2.931673601 Argument of Perigee(rad): -0.829294507 Mean Anom(rad): 1.384240145 Af0(s): 2.713227539e-05 Af1(s/s): 7.275958e-12 week: 357 ******** Week 357 almanac for PRN-3 ******** ID: 3 Health: 0 Eccentricity: 0.006400585175 Time of Applicability(s): 61440 Orbital Inclination(rad): 0.9928355091 Rate of Right Ascen(r/s): -7.554600394e-09 SQRT(A) (m 1/2): 5153.597656 Right Ascen at Week(rad): -1.78271862 Argument of Perigee(rad): 1.204820569 Mean Anom(rad): -2.223612262 Af0(s): 0.0004544656128 Af1(s/s): -1.091394e-11 week: 357 ******** Week 357 almanac for PRN-4 ******** ID: 4 Health: 0 Eccentricity: 0.003734111786 Time of Applicability(s): 61440 Orbital Inclination(rad): 0.9705088981 Rate of Right Ascen(r/s): -7.828897533e-09 SQRT(A) (m 1/2): 5153.688965 Right Ascen at Week(rad): -0.7115405091 Argument of Perigee(rad): -2.893626308 Mean Anom(rad): 0.7924385213 Af0(s): 3.391534424e-05 Af1(s/s): 3.637979e-12 week: 357 ******** Week 357 almanac for PRN-5 ******** ID: 5 Health: 0 Eccentricity: 0.005368709564 Time of Applicability(s): 61440 Orbital Inclination(rad): 0.9794191693 Rate of Right Ascen(r/s): -7.691748963e-09 SQRT(A) (m 1/2): 5153.648926 Right Ascen at Week(rad): -1.842195579 Argument of Perigee(rad): 1.420185704 Mean Anom(rad): 1.432360553 Af0(s): -0.0001808818359 Af1(s/s): 0 week: 357 ******** Week 357 almanac for PRN-6 ******** ID: 6 Health: 0 Eccentricity: 0.003871440887 Time of Applicability(s): 61440 Orbital Inclination(rad): 0.987340742 Rate of Right Ascen(r/s): -7.726036106e-09 SQRT(A) (m 1/2): 5153.578125 Right Ascen at Week(rad): -2.819183299 Argument of Perigee(rad): -0.5933842907 Mean Anom(rad): -0.8744409548 Af0(s): -0.0004815978882 Af1(s/s): -3.637979e-12 week: 357 ******** Week 357 almanac for PRN-7 ******** ID: 7 Health: 0 Eccentricity: 0.02032709122 Time of Applicability(s): 61440 Orbital Inclination(rad): 0.9512023118 Rate of Right Ascen(r/s): -7.874613723e-09 SQRT(A) (m 1/2): 5153.575195 Right Ascen at Week(rad): 0.2969960578 Argument of Perigee(rad): -1.99873315 Mean Anom(rad): -1.761386325 Af0(s): -0.0001153121704 Af1(s/s): -3.637979e-12 week: 357 ******** Week 357 almanac for PRN-8 ******** ID: 8 Health: 0 Eccentricity: 0.01152038574 Time of Applicability(s): 61440 Orbital Inclination(rad): 0.9437780845 Rate of Right Ascen(r/s): -8.160339911e-09 SQRT(A) (m 1/2): 5153.623047 Right Ascen at Week(rad): 2.345020699 Argument of Perigee(rad): 0.5128652795 Mean Anom(rad): 1.079016168 Af0(s): 0.0003904032959 Af1(s/s): -3.637979e-12 week: 357 ******** Week 357 almanac for PRN-9 ******** ID: 9 Health: 0 Eccentricity: 0.003397941589 Time of Applicability(s): 61440 Orbital Inclination(rad): 0.9646186516 Rate of Right Ascen(r/s): -7.897471818e-09 SQRT(A) (m 1/2): 5153.736328 Right Ascen at Week(rad): -0.7756283989 Argument of Perigee(rad): 2.07447083 Mean Anom(rad): 1.672994052 Af0(s): 0.0006089688477 Af1(s/s): 0 week: 357 ******** Week 357 almanac for PRN-10 ******** ID: 10 Health: 0 Eccentricity: 0.01096582413 Time of Applicability(s): 61440 Orbital Inclination(rad): 0.9923801086 Rate of Right Ascen(r/s): -7.566029441e-09 SQRT(A) (m 1/2): 5153.608398 Right Ascen at Week(rad): -1.785228566 Argument of Perigee(rad): -2.259143242 Mean Anom(rad): 3.077944436 Af0(s): -0.0004642633789 Af1(s/s): 0 week: 357 ******** Week 357 almanac for PRN-11 ******** ID: 11 Health: 0 Eccentricity: 0.00221824646 Time of Applicability(s): 61440 Orbital Inclination(rad): 0.9641872195 Rate of Right Ascen(r/s): -7.954617056e-09 SQRT(A) (m 1/2): 5153.515137 Right Ascen at Week(rad): -2.799907048 Argument of Perigee(rad): -2.290478619 Mean Anom(rad): 0.1601496916 Af0(s): -0.0003519659058 Af1(s/s): 1.455192e-11 week: 357 ******** Week 357 almanac for PRN-12 ******** ID: 12 Health: 0 Eccentricity: 0.009056091309 Time of Applicability(s): 61440 Orbital Inclination(rad): 0.9588602315 Rate of Right Ascen(r/s): -7.783181343e-09 SQRT(A) (m 1/2): 5153.737793 Right Ascen at Week(rad): 1.414720523 Argument of Perigee(rad): 1.551831666 Mean Anom(rad): -2.394330542 Af0(s): -0.0004800905395 Af1(s/s): 0 week: 357 ******** Week 357 almanac for PRN-13 ******** ID: 13 Health: 0 Eccentricity: 0.00994682312 Time of Applicability(s): 61440 Orbital Inclination(rad): 0.9762193813 Rate of Right Ascen(r/s): -7.771752296e-09 SQRT(A) (m 1/2): 5153.619629 Right Ascen at Week(rad): -0.6008369805 Argument of Perigee(rad): 0.999404213 Mean Anom(rad): 0.8174574634 Af0(s): 0.0005433991821 Af1(s/s): 0 week: 357 ******** Week 357 almanac for PRN-14 ******** ID: 14 Health: 0 Eccentricity: 0.006603717804 Time of Applicability(s): 61440 Orbital Inclination(rad): 0.9422141431 Rate of Right Ascen(r/s): -7.954617056e-09 SQRT(A) (m 1/2): 5153.59668 Right Ascen at Week(rad): 1.360417004 Argument of Perigee(rad): -2.757708719 Mean Anom(rad): -2.575273987 Af0(s): 0.0005795755493 Af1(s/s): 3.637979e-12 week: 357 ******** Week 357 almanac for PRN-15 ******** ID: 15 Health: 0 Eccentricity: 0.01659631729 Time of Applicability(s): 61440 Orbital Inclination(rad): 0.9423939065 Rate of Right Ascen(r/s): -8.126052768e-09 SQRT(A) (m 1/2): 5153.627441 Right Ascen at Week(rad): -0.9191398667 Argument of Perigee(rad): 1.497825131 Mean Anom(rad): 0.07609421058 Af0(s): 0.0003037307495 Af1(s/s): 3.637979e-12 week: 357 ******** Week 357 almanac for PRN-16 ******** ID: 16 Health: 0 Eccentricity: 0.01505947113 Time of Applicability(s): 61440 Orbital Inclination(rad): 0.9579973673 Rate of Right Ascen(r/s): -7.817468486e-09 SQRT(A) (m 1/2): 5153.587402 Right Ascen at Week(rad): 1.431741119 Argument of Perigee(rad): 0.9260094491 Mean Anom(rad): 2.09186743 Af0(s): 0.0001612863037 Af1(s/s): 7.275958e-12 week: 357 ******** Week 357 almanac for PRN-17 ******** ID: 17 Health: 0 Eccentricity: 0.01273584366 Time of Applicability(s): 61440 Orbital Inclination(rad): 0.9595433323 Rate of Right Ascen(r/s): -8.034620388e-09 SQRT(A) (m 1/2): 5153.527344 Right Ascen at Week(rad): 2.449368095 Argument of Perigee(rad): -1.127054185 Mean Anom(rad): 0.9872705598 Af0(s): -4.522045898e-05 Af1(s/s): -1.091394e-11 week: 357 ******** Week 357 almanac for PRN-18 ******** ID: 18 Health: 0 Eccentricity: 0.005707740784 Time of Applicability(s): 61440 Orbital Inclination(rad): 0.9722945476 Rate of Right Ascen(r/s): -7.886042771e-09 SQRT(A) (m 1/2): 5153.595215 Right Ascen at Week(rad): -2.823901713 Argument of Perigee(rad): -2.860611641 Mean Anom(rad): -0.996019044 Af0(s): -0.0003399071167 Af1(s/s): 1.091394e-11 week: 357 ******** Week 357 almanac for PRN-19 ******** ID: 19 Health: 0 Eccentricity: 0.01103639603 Time of Applicability(s): 61440 Orbital Inclination(rad): 0.9587523735 Rate of Right Ascen(r/s): -8.034620388e-09 SQRT(A) (m 1/2): 5153.662109 Right Ascen at Week(rad): 2.493268558 Argument of Perigee(rad): 2.922817259 Mean Anom(rad): 2.828134017 Af0(s): 0.0005449065308 Af1(s/s): 0 week: 357 ******** Week 357 almanac for PRN-20 ******** ID: 20 Health: 255 Eccentricity: 0.0004835128784 Time of Applicability(s): 61440 Orbital Inclination(rad): 0.9596152377 Rate of Right Ascen(r/s): -7.943188008e-09 SQRT(A) (m 1/2): 5153.594727 Right Ascen at Week(rad): -0.7699800839 Argument of Perigee(rad): 1.040062194 Mean Anom(rad): 0.8044751772 Af0(s): 0 Af1(s/s): 0 week: 357 ******** Week 357 almanac for PRN-21 ******** ID: 21 Health: 0 Eccentricity: 0.0006585121155 Time of Applicability(s): 61440 Orbital Inclination(rad): 0.9622577593 Rate of Right Ascen(r/s): -7.863184676e-09 SQRT(A) (m 1/2): 5153.70459 Right Ascen at Week(rad): -1.775802598 Argument of Perigee(rad): -0.4206256965 Mean Anom(rad): -2.604860042 Af0(s): 0.000312021167 Af1(s/s): 7.275958e-12 week: 357 ******** Week 357 almanac for PRN-22 ******** ID: 22 Health: 0 Eccentricity: 0.01215600967 Time of Applicability(s): 61440 Orbital Inclination(rad): 0.9574401009 Rate of Right Ascen(r/s): -7.828897533e-09 SQRT(A) (m 1/2): 5153.577637 Right Ascen at Week(rad): 1.435087714 Argument of Perigee(rad): -0.9946603325 Mean Anom(rad): 1.637565313 Af0(s): -3.843739014e-05 Af1(s/s): 3.637979e-12 week: 357 ******** Week 357 almanac for PRN-23 ******** ID: 23 Health: 0 Eccentricity: 0.006014823914 Time of Applicability(s): 61440 Orbital Inclination(rad): 0.9873826868 Rate of Right Ascen(r/s): -7.623174678e-09 SQRT(A) (m 1/2): 5153.65918 Right Ascen at Week(rad): -1.817221952 Argument of Perigee(rad): -2.740601613 Mean Anom(rad): -2.114236735 Af0(s): 0.0004823515625 Af1(s/s): 3.637979e-12 week: 357 ******** Week 357 almanac for PRN-24 ******** ID: 24 Health: 0 Eccentricity: 0.01786708832 Time of Applicability(s): 61440 Orbital Inclination(rad): 0.93522734 Rate of Right Ascen(r/s): -8.080336578e-09 SQRT(A) (m 1/2): 5153.591797 Right Ascen at Week(rad): 0.1889286842 Argument of Perigee(rad): 1.132471803 Mean Anom(rad): -0.7800857815 Af0(s): -0.000102499707 Af1(s/s): 1.455192e-11 week: 357 ******** Week 357 almanac for PRN-25 ******** ID: 25 Health: 0 Eccentricity: 0.01295232773 Time of Applicability(s): 61440 Orbital Inclination(rad): 0.9472295413 Rate of Right Ascen(r/s): -7.886042771e-09 SQRT(A) (m 1/2): 5153.681641 Right Ascen at Week(rad): 1.321110245 Argument of Perigee(rad): 1.153955399 Mean Anom(rad): -2.542959648 Af0(s): 0.0003512122314 Af1(s/s): -3.637979e-12 week: 357 ******** Week 357 almanac for PRN-26 ******** ID: 26 Health: 0 Eccentricity: 0.01099634171 Time of Applicability(s): 61440 Orbital Inclination(rad): 0.9280248208 Rate of Right Ascen(r/s): -8.091765626e-09 SQRT(A) (m 1/2): 5153.649414 Right Ascen at Week(rad): 1.246965343 Argument of Perigee(rad): 0.7061131533 Mean Anom(rad): 2.91588401 Af0(s): -0.0002562492676 Af1(s/s): -7.275958e-12 week: 357 ******** Week 357 almanac for PRN-27 ******** ID: 27 Health: 0 Eccentricity: 0.01428842545 Time of Applicability(s): 61440 Orbital Inclination(rad): 0.9528980796 Rate of Right Ascen(r/s): -8.080336578e-09 SQRT(A) (m 1/2): 5153.613281 Right Ascen at Week(rad): 2.376853797 Argument of Perigee(rad): 0.8732552656 Mean Anom(rad): 1.174504974 Af0(s): -2.939329834e-05 Af1(s/s): -1.091394e-11 week: 357 ******** Week 357 almanac for PRN-28 ******** ID: 28 Health: 0 Eccentricity: 0.0004048347473 Time of Applicability(s): 61440 Orbital Inclination(rad): 0.9621618855 Rate of Right Ascen(r/s): -7.771752296e-09 SQRT(A) (m 1/2): 5153.727051 Right Ascen at Week(rad): 0.2710108876 Argument of Perigee(rad): 0.196777977 Mean Anom(rad): -1.605467814 Af0(s): -0.0004733074707 Af1(s/s): 7.275958e-12 week: 357 ******** Week 357 almanac for PRN-29 ******** ID: 29 Health: 0 Eccentricity: 0.003299236298 Time of Applicability(s): 61440 Orbital Inclination(rad): 0.9621978382 Rate of Right Ascen(r/s): -8.011762293e-09 SQRT(A) (m 1/2): 5153.721191 Right Ascen at Week(rad): 2.466024295 Argument of Perigee(rad): 2.741618399 Mean Anom(rad): 1.047776664 Af0(s): -0.0002992087036 Af1(s/s): 7.275958e-12 week: 357 ******** Week 357 almanac for PRN-30 ******** ID: 30 Health: 0 Eccentricity: 0.007967472076 Time of Applicability(s): 61440 Orbital Inclination(rad): 0.9364557231 Rate of Right Ascen(r/s): -8.034620388e-09 SQRT(A) (m 1/2): 5153.711914 Right Ascen at Week(rad): 0.2883179809 Argument of Perigee(rad): -2.334101947 Mean Anom(rad): -1.898949872 Af0(s): 9.044091797e-05 Af1(s/s): 1.091394e-11 week: 357 ******** Week 357 almanac for PRN-31 ******** ID: 31 Health: 0 Eccentricity: 0.01083898544 Time of Applicability(s): 61440 Orbital Inclination(rad): 0.9549653584 Rate of Right Ascen(r/s): -7.828897533e-09 SQRT(A) (m 1/2): 5153.715332 Right Ascen at Week(rad): 0.3211131869 Argument of Perigee(rad): 0.9359020523 Mean Anom(rad): -2.848067903 Af0(s): -0.0001326466797 Af1(s/s): 3.637979e-12 week: 357 ******** Week 357 almanac for PRN-32 ******** ID: 32 Health: 0 Eccentricity: 0.009281635284 Time of Applicability(s): 61440 Orbital Inclination(rad): 0.9676866132 Rate of Right Ascen(r/s): -7.828897533e-09 SQRT(A) (m 1/2): 5153.669922 Right Ascen at Week(rad): -0.7587010557 Argument of Perigee(rad): -2.012536356 Mean Anom(rad): 1.76807165 Af0(s): -8.064315185e-05 Af1(s/s): 1.818989e-11 week: 357